Point Salines, Grenada

9:04 PM AST on July 28, 2016 (GMT -0400)
Point Salines International | | Change Station

Elev 23 ft 12.00 °N, 61.79 °W | Updated 4 minutes ago

Partly Cloudy
Partly Cloudy
79 °F
Feels Like 79 °F
N
12
Wind Variable Wind from ENE

Today
High -- | Low -- °F
--% Chance of Precip.
Yesterday
High -- | Low -- °F
Precip. -- in
Pressure 29.92 in
Visibility 6.2 miles
Clouds Few 1800 ft
Dew Point 77 °F
Humidity 94%
Rainfall 0.00 in
Snow Depth Not available.
5:53 AM 6:33 PM
Waning Crescent, 27% visible
METAR TGPY 290100Z 06010KT 9999 FEW018 26/25 Q1013 NOSIG
Pressure 29.92 in
Visibility 6.2 miles
Clouds Few 1800 ft
Dew Point 77 °F
Humidity 94%
Rainfall 0.00 in
Snow Depth Not available.
5:53 AM 6:33 PM
Waning Crescent, 27% visible
METAR TGPY 290100Z 06010KT 9999 FEW018 26/25 Q1013 NOSIG

10-Day Weather Forecast

No radar image for this location.
×

Almanac

Astronomy

Jul. 28, 2016 Rise Set
Actual Time
Civil Twilight
Nautical Twilight
Astronomical Twilight
Moon
Length of Visible Light
Length of Day
Tomorrow will be .
, % of the Moon is Illuminated

Today's Extremes

Country Highs Country Lows

Community

WunderPhotos

Upload Photos

1,928,242 photos uploaded!

WunderBlog® & News

Nearby

Air Quality

  Air Quality AQ Index Pollutant
Not available.

Snow Depth

Station Depth Elevation

Earthquake Activity

City Distance Mag. Time & Date
Minimum magnitude displayed is 2.5.

Coastal Water Temperatures

Place Temperature

Stations

Nearby Weather Stations

Station Location Temp. Windchill Dew Point Humidity Wind Precip. Elev Updated Type